Weather History for KAIO - January, 2014

Change the Weather History Date:

Friday, January 3, 2014

  Actual Average Record
Temperature  
Mean Temperature 10 °F -  
Max Temperature 32 °F 31 °F 48 °F (1997)
Min Temperature -13 °F 12 °F -13 °F (2014)
Degree Days  
Heating Degree Days 56    
Moisture  
Dew Point 8 °F    
Average Humidity 69    
Maximum Humidity 77    
Minimum Humidity 61    
Precipitation  
Precipitation 0.00 in - - ()
Sea Level Pressure  
Sea Level Pressure 29.93 in    
Wind  
Wind Speed 13 mph (South)    
Max Wind Speed 28 mph    
Max Gust Speed 40 mph    
Visibility 10 miles    
Events Snow    
Averages and records for this station are not official NWS values.
T = Trace of Precipitation, MM = Missing Value Source: NWS Daily Summary

Daily Weather History Graph

Daily Weather History Graph

Search for Another Location

Airport or City:

Trip Planner

Search our weather history database for the weather conditions in past years. The results will help you decide how hot, cold, wet, or windy it might be!

Date:

Astronomy

Jan. 03, 2014 Rise Set
Actual Time 7:46 AM CST 5:03 PM CST
Civil Twilight 7:15 AM CST 5:34 PM CST
Nautical Twilight 6:40 AM CST 6:09 PM CST
Astronomical Twilight 6:07 AM CST 6:42 PM CST
Moon 9:11 AM CST (1/3) 8:15 PM CST (1/3)
Length of Visible Light 10h 19m
Length of Day
9h 16m
Waxing Crescent, 8% of the Moon is Illuminated
Jan 3
Waxing Crescent
Jan 7
First Quarter
Jan 15
Full
Jan 23
Last Quarter
Jan 30
New

Hourly Weather History & Observations

Time (CST) Temp. Windchill Dew Point Humidity Pressure Visibility Wind Dir Wind Speed Gust Speed Precip Events Conditions
12:15 AM -11.2 °F - -18.4 °F 70% 30.39 in 10.0 mi Calm Calm - N/A   Clear
12:35 AM -11.2 °F -20.6 °F -16.6 °F 77% 30.39 in 10.0 mi North 3.5 mph - N/A Snow Light Snow
12:55 AM -11.2 °F - -18.4 °F 70% 30.38 in 10.0 mi Calm Calm - N/A   Clear
1:15 AM -13.0 °F -22.7 °F -18.4 °F 77% 30.35 in 10.0 mi NE 3.5 mph - N/A   Clear
1:35 AM -9.4 °F - -16.6 °F 71% 30.35 in 10.0 mi Calm Calm - N/A   Clear
1:55 AM -9.4 °F - -16.6 °F 71% 30.34 in 10.0 mi Calm Calm - N/A   Clear
2:15 AM -7.6 °F -18.8 °F -14.8 °F 71% 30.33 in 10.0 mi SW 4.6 mph - N/A Snow Light Snow
2:35 AM -4.0 °F -16.3 °F -11.2 °F 71% 30.33 in 10.0 mi SW 5.8 mph - N/A Snow Light Snow
2:55 AM -0.4 °F -12.0 °F -7.6 °F 72% 30.32 in 10.0 mi South 5.8 mph - N/A   Clear
3:15 AM 1.4 °F -13.5 °F -7.6 °F 66% 30.30 in 10.0 mi South 9.2 mph - N/A   Clear
3:35 AM 1.4 °F -12.5 °F -5.8 °F 72% 30.29 in 10.0 mi South 8.1 mph 13.8 mph N/A   Clear
3:55 AM 3.2 °F -12.2 °F -7.6 °F 61% 30.28 in 10.0 mi South 10.4 mph 17.3 mph N/A   Clear
4:15 AM 1.4 °F -16.1 °F -7.6 °F 66% 30.27 in 10.0 mi South 12.7 mph - N/A   Clear
4:35 AM 1.4 °F -16.1 °F -7.6 °F 66% 30.27 in 10.0 mi South 12.7 mph - N/A   Mostly Cloudy
4:55 AM 1.4 °F -16.9 °F -7.6 °F 66% 30.25 in 10.0 mi South 13.8 mph - N/A   Overcast
5:15 AM 3.2 °F -15.9 °F -5.8 °F 66% 30.23 in 10.0 mi South 16.1 mph - N/A   Overcast
5:35 AM 3.2 °F -15.9 °F -5.8 °F 66% 30.22 in 10.0 mi South 16.1 mph - N/A   Overcast
5:55 AM 3.2 °F -15.9 °F -5.8 °F 66% 30.19 in 10.0 mi South 16.1 mph - N/A   Overcast
6:15 AM 5.0 °F -10.8 °F -5.8 °F 61% 30.17 in 10.0 mi South 11.5 mph 20.7 mph N/A   Overcast
6:35 AM 6.8 °F -10.7 °F -4.0 °F 61% 30.16 in 10.0 mi South 15.0 mph - N/A   Overcast
6:55 AM 6.8 °F -12.9 °F -4.0 °F 61% 30.15 in 10.0 mi South 19.6 mph - N/A   Overcast
7:15 AM 6.8 °F -10.0 °F -4.0 °F 61% 30.14 in 10.0 mi South 13.8 mph 20.7 mph N/A   Mostly Cloudy
7:35 AM 6.8 °F -10.0 °F -4.0 °F 61% 30.13 in 10.0 mi South 13.8 mph 19.6 mph N/A   Scattered Clouds
7:55 AM 6.8 °F -9.3 °F -2.2 °F 67% 30.12 in 10.0 mi South 12.7 mph 20.7 mph N/A   Clear
8:15 AM 6.8 °F -6.9 °F -2.2 °F 67% 30.11 in 10.0 mi South 9.2 mph 16.1 mph N/A   Clear
8:35 AM 6.8 °F -10.0 °F -2.2 °F 67% 30.09 in 10.0 mi South 13.8 mph 20.7 mph N/A   Clear
8:55 AM 8.6 °F -7.0 °F -0.4 °F 67% 30.08 in 10.0 mi South 12.7 mph 18.4 mph N/A   Clear
9:15 AM 8.6 °F -10.5 °F -0.4 °F 67% 30.07 in 10.0 mi South 19.6 mph - N/A   Clear
9:35 AM 10.4 °F -6.6 °F 1.4 °F 67% 30.06 in 10.0 mi South 16.1 mph 23.0 mph N/A   Clear
9:55 AM 12.2 °F -6.7 °F 3.2 °F 67% 30.04 in 10.0 mi South 21.9 mph 27.6 mph N/A   Clear
10:15 AM 12.2 °F -5.3 °F 3.2 °F 67% 30.04 in 2.5 mi South 18.4 mph 25.3 mph N/A   Haze
10:35 AM 14.0 °F -2.0 °F 5.0 °F 67% 30.02 in 9.0 mi South 16.1 mph 24.2 mph N/A   Clear
10:55 AM 17.6 °F 0.5 °F 10.4 °F 73% 29.99 in 10.0 mi South 21.9 mph 28.8 mph N/A   Clear
11:15 AM 19.4 °F 1.8 °F 12.2 °F 74% 29.97 in 7.0 mi South 25.3 mph 35.7 mph N/A   Clear
11:35 AM 19.4 °F 1.8 °F 12.2 °F 74% 29.95 in 6.0 mi South 25.3 mph 40.3 mph N/A   Haze
11:55 AM 19.4 °F 1.4 °F 12.2 °F 74% 29.92 in 9.0 mi South 26.5 mph 33.4 mph N/A   Clear
12:15 PM 21.2 °F 5.6 °F 12.2 °F 68% 29.90 in 8.0 mi South 20.7 mph 36.8 mph N/A   Clear
12:35 PM 23.0 °F 6.6 °F 14.0 °F 68% 29.87 in 9.0 mi South 25.3 mph 34.5 mph N/A   Clear
12:55 PM 23.0 °F 7.6 °F 15.8 °F 74% 29.84 in 10.0 mi South 21.9 mph 31.1 mph N/A   Clear
1:15 PM 24.8 °F 8.4 °F 15.8 °F 69% 29.82 in 8.0 mi South 27.6 mph 35.7 mph N/A   Clear
1:35 PM 26.6 °F 11.1 °F 17.6 °F 69% 29.78 in 8.0 mi South 26.5 mph 38.0 mph N/A   Clear
1:55 PM 26.6 °F 10.8 °F 17.6 °F 69% 29.76 in 9.0 mi South 27.6 mph 36.8 mph N/A   Clear
2:15 PM 28.4 °F 13.5 °F 19.4 °F 69% 29.74 in 9.0 mi South 26.5 mph 34.5 mph N/A   Clear
2:35 PM 28.4 °F 13.3 °F 19.4 °F 69% 29.72 in 9.0 mi South 27.6 mph 35.7 mph N/A   Clear
2:55 PM 30.2 °F 16.5 °F 19.4 °F 64% 29.72 in 10.0 mi South 24.2 mph 33.4 mph N/A   Clear
3:15 PM 30.2 °F 16.5 °F 21.2 °F 69% 29.72 in 10.0 mi South 24.2 mph 33.4 mph N/A   Clear
3:35 PM 30.2 °F 17.1 °F 21.2 °F 69% 29.71 in 10.0 mi South 21.9 mph 29.9 mph N/A   Clear
3:55 PM 30.2 °F 17.8 °F 21.2 °F 69% 29.70 in 10.0 mi South 19.6 mph 31.1 mph N/A   Clear
4:15 PM 30.2 °F 17.8 °F 21.2 °F 69% 29.69 in 10.0 mi South 19.6 mph 26.5 mph N/A   Clear
4:35 PM 30.2 °F 17.4 °F 21.2 °F 69% 29.68 in 10.0 mi South 20.7 mph 27.6 mph N/A   Clear
4:55 PM 30.2 °F 17.4 °F 21.2 °F 69% 29.68 in 10.0 mi South 20.7 mph 27.6 mph N/A   Clear
5:15 PM 30.2 °F 17.8 °F 21.2 °F 69% 29.67 in 10.0 mi South 19.6 mph 27.6 mph N/A   Clear
5:35 PM 30.2 °F 17.4 °F 21.2 °F 69% 29.67 in 10.0 mi South 20.7 mph 28.8 mph N/A   Clear
5:55 PM 30.2 °F 18.5 °F 21.2 °F 69% 29.67 in 10.0 mi South 17.3 mph 26.5 mph N/A   Clear
6:15 PM 30.2 °F 17.4 °F 23.0 °F 75% 29.66 in 10.0 mi South 20.7 mph 27.6 mph N/A   Partly Cloudy
6:35 PM 30.2 °F 17.8 °F 23.0 °F 75% 29.65 in 10.0 mi South 19.6 mph 31.1 mph N/A   Clear
6:55 PM 32.0 °F 19.5 °F 23.0 °F 69% 29.65 in 10.0 mi South 21.9 mph 28.8 mph N/A   Partly Cloudy
7:15 PM 32.0 °F 19.2 °F 23.0 °F 69% 29.65 in 10.0 mi South 23.0 mph 29.9 mph N/A   Partly Cloudy
7:35 PM 32.0 °F 19.8 °F 23.0 °F 69% 29.64 in 10.0 mi South 20.7 mph 28.8 mph N/A   Partly Cloudy
7:55 PM 32.0 °F 19.8 °F 23.0 °F 69% 29.63 in 10.0 mi South 20.7 mph 31.1 mph N/A   Partly Cloudy
8:15 PM 32.0 °F 19.2 °F 24.8 °F 75% 29.62 in 10.0 mi South 23.0 mph 35.7 mph N/A   Partly Cloudy
8:35 PM 32.0 °F 18.9 °F 24.8 °F 75% 29.61 in 10.0 mi South 24.2 mph 29.9 mph N/A   Scattered Clouds
8:55 PM 32.0 °F 19.2 °F 24.8 °F 75% 29.60 in 10.0 mi South 23.0 mph 32.2 mph N/A   Scattered Clouds
9:15 PM 32.0 °F 19.2 °F 24.8 °F 75% 29.59 in 10.0 mi South 23.0 mph - N/A   Scattered Clouds
9:35 PM 32.0 °F 19.5 °F 24.8 °F 75% 29.59 in 10.0 mi South 21.9 mph 28.8 mph N/A   Scattered Clouds
9:55 PM 32.0 °F 20.1 °F 24.8 °F 75% 29.59 in 10.0 mi South 19.6 mph 31.1 mph N/A   Partly Cloudy
10:15 PM 32.0 °F 18.9 °F 24.8 °F 75% 29.60 in 10.0 mi SSW 24.2 mph 31.1 mph N/A   Partly Cloudy
10:35 PM 32.0 °F 20.1 °F 24.8 °F 75% 29.60 in 1.8 mi SSW 19.6 mph 29.9 mph N/A   Haze
10:55 PM 32.0 °F 18.9 °F 23.0 °F 69% 29.61 in 10.0 mi SSW 24.2 mph - N/A   Scattered Clouds
11:15 PM 32.0 °F 20.5 °F 23.0 °F 69% 29.62 in 10.0 mi SSW 18.4 mph 26.5 mph N/A   Scattered Clouds
11:35 PM 32.0 °F 19.5 °F 23.0 °F 69% 29.62 in 10.0 mi SSW 21.9 mph - N/A   Scattered Clouds
11:55 PM 30.2 °F 17.8 °F 23.0 °F 75% 29.62 in 10.0 mi SSW 19.6 mph - N/A   Scattered Clouds